Sugar Grove, IL

5:33 AM CST on February 08, 2016 (GMT -0600)
Aurora Municipal

Weather History for KARR - March, 2013

Change the Weather History Date:

Friday, March 15, 2013

  Actual Average Record
Temperature  
Mean Temperature 33 °F 37 °F  
Max Temperature 39 °F 47 °F 80 °F (2012)
Min Temperature 27 °F 27 °F 11 °F (1999)
Degree Days  
Heating Degree Days 32 28  
Month to date heating degree days 558 472  
Since 1 July heating degree days 5387 5610  
Cooling Degree Days 0 0  
Month to date cooling degree days 0 0  
Year to date cooling degree days 0 0  
Moisture  
Dew Point 33 °F    
Average Humidity 93    
Maximum Humidity 100    
Minimum Humidity 85    
Precipitation  
Precipitation 0.08 in 0.08 in 0.48 in (2001)
Month to date precipitation 1.27 1.02  
Year to date precipitation 6.14 4.11  
Sea Level Pressure  
Sea Level Pressure 29.89 in    
Wind  
Wind Speed 6 mph (East)    
Max Wind Speed 16 mph    
Max Gust Speed 22 mph    
Visibility 3 miles    
Events Rain    
T = Trace of Precipitation, MM = Missing Value Source: NWS Daily Summary

Daily Weather History Graph

Daily Weather History Graph

Search for Another Location

Airport or City:

Trip Planner

Search our weather history database for the weather conditions in past years. The results will help you decide how hot, cold, wet, or windy it might be!

Date:

Astronomy

Mar. 15, 2013 Rise Set
Actual Time 7:05 AM CDT 7:00 PM CDT
Civil Twilight 6:37 AM CDT 7:28 PM CDT
Nautical Twilight 6:05 AM CDT 8:00 PM CDT
Astronomical Twilight 5:32 AM CDT 8:33 PM CDT
Moon 8:51 AM CDT (3/15) 11:18 PM CDT (3/15)
Length of Visible Light 12h 50m
Length of Day
11h 55m
Waxing Crescent, 15% of the Moon is Illuminated
Mar 15
Waxing Crescent
Mar 19
First Quarter
Mar 27
Full
Apr 2
Last Quarter
Apr 10
New

Hourly Weather History & Observations

Time (CDT) Temp. Windchill Dew Point Humidity Pressure Visibility Wind Dir Wind Speed Gust Speed Precip Events Conditions
12:52 AM 30.0 °F - 28.0 °F 92% 30.10 in 5.0 mi Calm Calm - N/A   Clear
1:52 AM 28.9 °F 25.2 °F 28.0 °F 96% 30.07 in 5.0 mi South 3.5 mph - N/A   Clear
2:52 AM 28.9 °F 25.2 °F 28.0 °F 96% 30.04 in 5.0 mi SSE 3.5 mph - N/A   Clear
3:52 AM 28.9 °F 25.2 °F 28.0 °F 96% 30.02 in 6.0 mi South 3.5 mph - N/A   Clear
4:52 AM 28.9 °F 22.8 °F 28.0 °F 96% 29.99 in 5.0 mi SSW 5.8 mph - N/A   Clear
5:52 AM 28.0 °F - 26.1 °F 92% 30.00 in 5.0 mi Calm Calm - N/A   Clear
6:52 AM 28.9 °F - 27.0 °F 92% 29.98 in 4.0 mi Calm Calm - N/A   Clear
7:52 AM 30.0 °F - 28.9 °F 96% 29.97 in 3.0 mi Calm Calm - N/A   Clear
8:52 AM 32.0 °F - 30.0 °F 92% 29.98 in 4.0 mi Calm Calm - N/A   Clear
9:52 AM 34.0 °F 29.8 °F 30.9 °F 89% 29.96 in 4.0 mi SW 4.6 mph - N/A   Clear
10:52 AM 36.0 °F 33.3 °F 32.0 °F 86% 29.95 in 5.0 mi WSW 3.5 mph - N/A   Clear
11:52 AM 37.0 °F 33.3 °F 33.1 °F 86% 29.94 in 5.0 mi West 4.6 mph - N/A   Overcast
12:52 PM 37.0 °F 33.3 °F 34.0 °F 89% 29.91 in 3.0 mi NE 4.6 mph - 0.04 in Rain Light Rain
1:24 PM 37.4 °F - 35.6 °F 93% 29.90 in 4.0 mi Calm Calm - 0.00 in Rain Light Rain
1:48 PM 37.4 °F 33.8 °F 35.6 °F 93% 29.92 in 2.5 mi West 4.6 mph - 0.01 in Rain Light Rain
1:52 PM 37.0 °F 33.3 °F 36.0 °F 96% 29.94 in 2.5 mi West 4.6 mph - 0.01 in Rain Light Rain
2:36 PM 37.4 °F 34.9 °F 35.6 °F 93% 29.88 in 3.0 mi North 3.5 mph - 0.02 in Rain Light Rain
2:52 PM 37.0 °F - 35.1 °F 93% 29.89 in 3.0 mi Calm Calm - 0.02 in Rain Light Rain
3:47 PM 39.2 °F 35.9 °F 37.4 °F 93% 29.86 in 3.0 mi SE 4.6 mph - 0.01 in   Mostly Cloudy
3:52 PM 39.0 °F 36.8 °F 36.0 °F 89% 29.88 in 3.0 mi ESE 3.5 mph - 0.01 in   Overcast
4:48 PM 39.2 °F 34.2 °F 37.4 °F 93% 29.82 in 2.5 mi East 6.9 mph - 0.00 in Rain Light Rain
4:52 PM 39.0 °F 33.4 °F 37.0 °F 93% 29.84 in 2.0 mi ENE 8.1 mph - 0.00 in Rain Light Rain
5:52 PM 39.0 °F 33.4 °F 37.0 °F 93% 29.82 in 2.5 mi East 8.1 mph - 0.00 in Rain Light Rain
6:06 PM 39.2 °F 34.2 °F 37.4 °F 93% 29.80 in 2.5 mi ESE 6.9 mph - 0.00 in Rain Light Rain
6:52 PM 37.9 °F 31.5 °F 37.0 °F 97% 29.79 in 2.5 mi East 9.2 mph - 0.00 in   Overcast
6:56 PM 37.4 °F 32.1 °F 37.4 °F 100% 29.78 in 2.0 mi East 6.9 mph - N/A   Overcast
7:05 PM 37.4 °F 32.1 °F 37.4 °F 100% 29.79 in 2.5 mi ESE 6.9 mph - N/A   Overcast
7:24 PM 37.4 °F 34.9 °F 37.4 °F 100% 29.80 in 3.0 mi SE 3.5 mph - N/A   Overcast
7:45 PM 35.6 °F 27.1 °F 33.8 °F 93% 29.83 in 2.0 mi North 12.7 mph - N/A   Overcast
7:52 PM 35.1 °F 26.4 °F 34.0 °F 96% 29.85 in 2.0 mi NNE 12.7 mph - N/A   Overcast
7:56 PM 35.6 °F 27.5 °F 33.8 °F 93% 29.83 in 2.5 mi NNE 11.5 mph - N/A   Overcast
8:52 PM 34.0 °F 25.0 °F 33.1 °F 96% 29.84 in 2.5 mi NE 12.7 mph - N/A   Overcast
9:52 PM 34.0 °F 25.0 °F 33.1 °F 96% 29.82 in 2.5 mi NE 12.7 mph - N/A   Overcast
10:04 PM 33.8 °F 23.9 °F 33.8 °F 100% 29.79 in 3.0 mi NE 15.0 mph - N/A   Overcast
10:52 PM 34.0 °F 24.6 °F 33.1 °F 96% 29.77 in 3.0 mi ENE 13.8 mph - N/A   Overcast
11:52 PM 34.0 °F 24.6 °F 33.1 °F 96% 29.76 in 3.0 mi NE 13.8 mph - N/A   Overcast